Savoy, IL

2:57 AM CST on January 23, 2017 (GMT -0600)
Univ Of Illinois-Willard

Weather History for KCMI - October, 2010

Change the Weather History Date:

Thursday, October 28, 2010

  Actual Average Record
Temperature  
Mean Temperature 37 °F 50 °F  
Max Temperature 46 °F 61 °F 81 °F (1999)
Min Temperature 28 °F 39 °F 25 °F (2001)
Degree Days  
Heating Degree Days 28 16  
Month to date heating degree days 230 320  
Since 1 July heating degree days 272 412  
Cooling Degree Days 0 0  
Month to date cooling degree days 25 14  
Year to date cooling degree days 1334 939  
Moisture  
Dew Point 32 °F    
Average Humidity 72    
Maximum Humidity 85    
Minimum Humidity 58    
Precipitation  
Precipitation 0.00 in 0.10 in 0.39 in (2014)
Month to date precipitation 1.22 2.86  
Year to date precipitation 28.35 33.42  
Sea Level Pressure  
Sea Level Pressure 30.20 in    
Wind  
Wind Speed 16 mph (WNW)    
Max Wind Speed 26 mph    
Max Gust Speed 31 mph    
Visibility 10 miles    
Events      
T = Trace of Precipitation, MM = Missing Value Source: NWS Daily Summary

Daily Weather History Graph

Daily Weather History Graph

Search for Another Location

Airport or City:

Trip Planner

Search our weather history database for the weather conditions in past years. The results will help you decide how hot, cold, wet, or windy it might be!

Date:

Astronomy

Oct. 28, 2010 Rise Set
Actual Time 7:17 AM CDT 5:55 PM CDT
Civil Twilight 6:49 AM CDT 6:23 PM CDT
Nautical Twilight 6:17 AM CDT 6:55 PM CDT
Astronomical Twilight 5:46 AM CDT 7:26 PM CDT
Moon 10:26 PM CDT (10/28) 12:38 PM CDT (10/28)
Length of Visible Light 11h 33m
Length of Day
10h 37m
Waning Gibbous, 70% of the Moon is Illuminated
Oct 28
Waning Gibbous
Oct 30
Last Quarter
Nov 5
New
Nov 13
First Quarter
Nov 21
Full

Hourly Weather History & Observations

Time (CDT) Temp. Windchill Dew Point Humidity Pressure Visibility Wind Dir Wind Speed Gust Speed Precip Events Conditions
12:53 AM 46.0 °F 39.6 °F 32.0 °F 58% 29.96 in 10.0 mi West 15.0 mph - N/A   Clear
1:53 AM 44.1 °F 36.2 °F 32.0 °F 63% 29.98 in 10.0 mi West 18.4 mph 24.2 mph N/A   Clear
2:53 AM 42.1 °F 33.3 °F 30.9 °F 65% 30.01 in 10.0 mi West 19.6 mph 27.6 mph N/A   Clear
3:53 AM 42.1 °F 33.6 °F 32.0 °F 67% 30.03 in 10.0 mi West 18.4 mph 25.3 mph N/A   Overcast
4:53 AM 42.1 °F 34.2 °F 32.0 °F 67% 30.04 in 10.0 mi West 16.1 mph - N/A   Overcast
5:53 AM 42.1 °F 33.3 °F 32.0 °F 67% 30.08 in 10.0 mi WNW 19.6 mph 29.9 mph N/A   Overcast
6:26 AM 42.8 °F 34.0 °F 32.0 °F 66% 30.09 in 10.0 mi WNW 20.7 mph - N/A   Overcast
6:53 AM 42.1 °F 33.3 °F 32.0 °F 67% 30.11 in 10.0 mi West 19.6 mph - N/A   Overcast
7:53 AM 42.1 °F 33.6 °F 32.0 °F 67% 30.13 in 10.0 mi West 18.4 mph 27.6 mph N/A   Overcast
8:09 AM 42.8 °F 34.5 °F 33.8 °F 70% 30.13 in 10.0 mi West 18.4 mph - N/A   Overcast
8:53 AM 43.0 °F 35.1 °F 33.1 °F 68% 30.18 in 10.0 mi WNW 17.3 mph 25.3 mph N/A   Overcast
9:53 AM 43.0 °F 34.5 °F 32.0 °F 65% 30.21 in 10.0 mi WNW 19.6 mph 25.3 mph N/A   Overcast
10:53 AM 42.8 °F 34.0 °F 33.8 °F 70% 30.22 in 10.0 mi WNW 20.7 mph 28.8 mph N/A   Overcast
11:53 AM 43.0 °F 34.0 °F 32.0 °F 65% 30.24 in 10.0 mi WNW 21.9 mph - N/A   Overcast
12:53 PM 45.0 °F 37.4 °F 32.0 °F 60% 30.25 in 10.0 mi WNW 18.4 mph 25.3 mph N/A   Overcast
1:14 PM 44.6 °F 36.6 °F 32.0 °F 61% 30.24 in 10.0 mi WNW 19.6 mph - N/A   Overcast
1:53 PM 45.0 °F 37.4 °F 32.0 °F 60% 30.26 in 10.0 mi WNW 18.4 mph - N/A   Overcast
2:53 PM 45.0 °F 37.4 °F 34.0 °F 65% 30.26 in 10.0 mi WNW 18.4 mph - N/A   Overcast
3:53 PM 45.0 °F 37.1 °F 33.1 °F 63% 30.27 in 10.0 mi West 19.6 mph 28.8 mph N/A   Overcast
4:53 PM 45.0 °F 37.6 °F 32.0 °F 60% 30.28 in 10.0 mi WNW 17.3 mph - N/A   Overcast
5:53 PM 44.1 °F 36.2 °F 33.1 °F 65% 30.30 in 10.0 mi West 18.4 mph - N/A   Overcast
6:53 PM 43.0 °F 35.4 °F 33.1 °F 68% 30.32 in 10.0 mi WNW 16.1 mph - N/A   Overcast
7:53 PM 42.1 °F 33.9 °F 30.9 °F 65% 30.35 in 10.0 mi NW 17.3 mph - N/A   Overcast
8:53 PM 37.0 °F 31.0 °F 30.0 °F 76% 30.36 in 10.0 mi West 8.1 mph - N/A   Clear
9:53 PM 33.1 °F 27.7 °F 28.0 °F 82% 30.37 in 10.0 mi West 5.8 mph - N/A   Partly Cloudy
10:53 PM 32.0 °F 28.7 °F 28.0 °F 85% 30.36 in 10.0 mi NW 3.5 mph - N/A   Partly Cloudy
11:53 PM 30.9 °F 25.2 °F 27.0 °F 85% 30.37 in 10.0 mi West 5.8 mph - N/A   Clear